SCP
0 -0 -0 0 0 0 0 0 0 0 0 0 0 0 0 0 0 0 0 0 0 0 0 0 0 0 0 0 0 0 0 0 0 0 0 0 0 0 0 0 0 0 0
0 0 0 0 0 0 0 0 0 0 0 0 0 0 0 0 0 0 0 0 0 0 0 0 0 0 0 0 0 0 0 0 0 0 0 0 0 0 0 0 0 0 0
0 0 0 0 0 0 0 0 0 0 0 0 0 0 0 0 0 0 0 0 0 0 0 0 0 0 0 0 0 0 0 0 0 0 0 0 0 0 0 0 0 0 0
0 0 0 0 0 0 0 0 0 0 0 0 0 0 0 0 0 0 0 0 0 0 0 0 0 0 0 0 0 0 0 0 0 0 0 0 0 0 0 0 0 0 0
0 0 0 0 0 0 0 0 0 0 0 0 0 0 0 0 0 0 0 0 0 0 0 0 0 0 0 0 0 0 0 0 0 0 0 0 0 0 0 0 0 0 0
0 0 0 0 0 0 0 0 0 0 0 0 0 0 0 0 0 0 0 0 0 0 0 0 0 0 0 0 0 0 0 0 0 0 0 0 0 0 0 0 0 0 0
0 0 0 0 0 0 0 0 0 0 0 0 0 0 0 0 0 0 0 0 0 0 0 0 0 0 0 0 0 0 0 0 0 0 0 0 0 0 0 0 0 0 0
0 0 0 0 0 0 0 0 0 0 0 0 0 0 0 0 0 0 0 0 0 0 0 0 0 0 0 0 0 0 0 0 0 0 0 0 0 0 0 0 0 0 0
0 0 0 0 0 0 0 0 0 0 0 0 0 0 0 0 0 0 0 0 0 0 0 0 0 0 0 0 0 0 0 0 0 0 0 0 0 0 0 0 0 0 0
0 0 0 0 0 0 0 0 0 0 0 0 0 0 0 0 0 0 0 0 0 0 0 0 0 0 0 0 0 0 0 0 0 0 0 0 0 0 0 0 0 0 0
0 0 0 0 0 0 0 0 0 0 0 0 0 0 0 0 0 0 0 0 0 0 0 0 0 0 0 0 0 0 0 0 0 0 0 0 0 0 0 0 0 0 0
0 0 0 0 0 0 0 0 0 0 0 0 0 0 0 0 0 0 0 0 0 0 0 0 0 0 0 0 0 0 0 0 0 0 0 0 0 0 0 0 0 0 0
0 0 0 0 0 0 0 0 0 0 0 0 0 0 0 0 0 0 0 0 0 0 0 0 0 0 0 0 0 0 0 0 0 0 0 0 0 0 0 0 0 0 0
0 0 0 0 0 0 0 0 0 0 0 0 0 0 0 0 0 0 0 0 0 0 0 0 0 0 0 0 0 0 0 0 0 0 0 0 0 0 0 0 0 0 0
0 0 0 0 0 0 0 0 0 0 0 0 0 0 0 0 0 0 0 0 0 0 0 0 0 0 0 0 0 0 0 0 0 0 0 0 0 0 0 0 0 0 0
0 0 0 0 0 0 0 0 0 0 0 0 0 0 0 0 0 0 0 0 0 0 0 0 0 0 0 0 0 0 0 -0 0 0 0 0 0 0 0 0 0 0 0
0 0 0 0 0 0 0 0 0 0 0 0 0 0 0 0 0 0 0 0 0 0 0 0 0 0 0 0 0 0 0 0 0 0 0 0 0 0 0 0 0 0 0
0 0 0 0 0 0 0 0 0 0 0 0 0 0 0 0 0 0 0 0 0 0 0 0 0 0 0 0 0 0 0 0 0 0 0 0 0 0 0 0 0 0 0
0 0 0 0 0 0 0 0 0 0 0 0 0 0 0 0 0 0 0 0 0 0 0 0 0 0 0 0 0 0 0 0 0 0 0 0 0 0 0 0 0 0 0
0 0 0 0 0 0 0 0 0 0 0 0 0 0 0 0 0 0 0 0 0 0 0 0 0 0 0 0 0 0 0 0 0 0 0 0 0 0 0 0 0 0 0
0 0 0 0 0 0 0 0 0 0 0 0 0 0 0 0 0 0 0 0 0 0 0 0 0 0 0 0 0 0 0 0 0 0 0 0 0 0 0 0 0 0 0
0 0 0 0 0 0 0 0 0 0 0 0 0 0 0 0 0 0 0 0 0 0 0 0 0 0 0 0 0 0 0 0 0 0 0 0 0 0 0 0 0 0 0
0 0 0 0 0 0 0 0 0 0 0 0 0 0 0 0 0 0 0 0 0 0 0 0 0 0 0 0 0 0 0 0 0 0 0 0 0 0 0 0 0 0 0
0 0 0 0 0 0 0 0 0 0 0 0 0 0 0 0 0 0 0 0 0 0 0 0 0 0 0 0 0 0 0 0 0 0 0 0 0 0 0 0 0 0 0
0 0 0 0 0 0 0 0 0 0 0 0 0 0 0 0 0 0 0 0 0 0 0 0 0 0 0 0 0 0 0 0 0 0 0 0 0 0 0 0 0 0 0
0 0 0 0 0 0 0 0 0 0 0 0 0 0 0 0 0 0 0 0 0 0 0 0 0 0 0 0 0 0 0 0 0 0 0 0 0 0 0 0 0 0 0
Wind_Speed_500mb
11 9 8 6 5 4 4 4 3 3 4 6 8 11 15 17 19 20 26 28 26 23 25 27 28 28 25 27 32 34 32 34 33 35 42 45 47 48 49 50 54 56 58
12 10 8 5 4 4 5 5 3 0 1 3 6 10 13 16 20 20 17 25 22 23 27 29 28 29 28 27 27 28 30 36 42 44 46 49 51 53 55 57 58 59 60
16 13 10 9 8 5 5 4 4 3 3 7 11 14 17 19 20 18 13 13 23 23 23 25 26 27 26 24 30 35 40 42 45 47 48 50 52 54 56 56 58 59 59
20 18 17 15 12 10 8 7 1 4 7 11 13 13 14 20 20 14 13 11 13 16 22 24 25 24 27 29 33 34 37 44 49 50 52 53 55 58 60 60 61 62 64
25 23 24 20 17 15 12 7 9 9 12 15 19 22 19 18 11 11 10 14 10 14 23 26 24 24 28 31 33 40 44 45 47 51 54 56 59 59 60 61 63 65 66
25 21 17 20 22 21 17 15 14 13 16 16 23 21 17 10 7 6 9 4 11 18 22 20 22 26 27 28 36 44 45 47 50 54 56 57 58 59 60 61 62 65 68
28 27 22 21 23 22 21 20 20 21 20 19 21 9 17 10 5 2 2 6 11 22 21 19 20 20 23 29 36 43 47 50 52 55 56 59 60 60 62 63 65 68 70
37 34 28 28 24 23 25 26 23 26 25 23 19 24 10 7 9 5 5 7 16 22 19 16 17 18 28 39 43 47 49 52 53 55 57 59 61 63 64 66 69 71 73
41 42 38 35 34 34 33 34 31 29 28 27 27 20 10 8 13 13 11 13 17 16 17 18 18 25 34 41 44 48 50 51 52 54 56 59 62 64 65 66 71 76 76
42 43 42 41 42 41 39 42 34 34 33 32 31 28 27 27 9 10 16 16 17 16 16 20 17 26 33 39 44 48 49 50 50 52 56 59 61 65 65 66 65 66 67
48 44 42 41 43 45 46 40 38 39 34 34 33 33 32 27 27 24 14 13 16 20 16 17 13 26 33 39 43 47 47 49 51 54 56 59 62 65 61 57 56 61 64
54 51 46 42 42 48 51 48 49 46 38 38 39 40 33 29 26 25 23 21 16 20 18 18 16 25 32 36 39 41 44 48 50 52 56 59 60 59 54 49 53 56 57
65 62 54 50 46 46 46 53 52 45 43 40 43 43 38 34 29 27 24 23 18 19 16 17 16 20 28 32 34 38 42 45 47 49 53 56 56 56 51 45 49 53 56
69 67 65 60 57 47 45 49 51 46 44 44 44 43 38 34 31 26 23 20 17 18 16 17 14 16 23 27 31 34 38 39 42 47 50 52 54 52 42 44 48 54 56
71 75 71 65 62 58 50 48 48 47 47 47 45 41 39 34 29 24 20 17 16 12 10 15 17 20 23 26 27 31 34 35 41 43 48 50 52 51 50 44 46 52 54
81 72 74 72 69 63 58 50 47 51 50 50 47 44 40 34 29 24 20 17 13 11 13 16 16 17 21 24 27 29 31 33 37 39 44 49 52 53 50 43 44 50 54
80 71 71 75 75 69 64 57 49 53 52 51 50 46 40 35 29 25 20 18 12 7 6 12 15 19 20 22 24 26 28 31 34 37 42 47 51 51 49 49 49 48 54
75 69 71 78 79 71 69 59 53 56 56 55 52 46 42 36 30 26 22 17 12 5 7 11 16 20 21 21 23 23 24 27 32 33 39 45 47 48 49 52 50 52 55
74 73 74 76 81 82 72 59 55 54 58 56 51 47 42 36 31 29 22 17 10 6 7 11 16 19 21 22 23 24 23 24 30 30 35 41 43 44 46 49 47 46 51
78 76 78 82 84 69 71 57 57 61 61 56 54 50 42 36 33 29 23 18 11 9 9 14 17 18 21 24 26 25 24 24 24 29 33 39 40 42 43 47 48 47 52
76 73 75 82 91 71 76 58 64 65 64 61 56 49 43 38 35 30 24 18 13 12 18 18 18 19 21 24 28 31 32 27 28 27 30 37 40 38 44 45 46 48 53
66 70 72 81 80 75 66 63 68 68 66 62 55 49 43 41 39 34 25 19 14 21 22 22 20 21 23 25 28 30 34 34 30 39 37 34 38 36 45 46 47 46 52
63 66 78 80 79 84 67 65 70 68 63 60 54 49 47 45 42 34 24 18 30 28 26 24 23 23 27 27 29 30 31 32 36 36 43 40 37 35 43 48 47 40 54
59 68 78 78 81 73 66 70 71 67 63 57 51 50 48 47 42 32 24 26 31 35 30 28 27 28 28 28 29 31 31 33 34 38 37 46 41 39 40 46 41 41 50
63 73 80 82 77 73 72 76 73 69 62 58 56 52 51 48 41 31 27 29 40 41 35 33 34 30 29 29 31 34 33 37 40 32 41 42 41 53 49 42 36 50 49
62 69 82 84 78 74 77 73 69 68 66 64 62 58 53 46 39 34 31 33 47 43 39 37 37 36 34 32 33 35 36 39 38 41 34 41 47 50 47 33 48 52 49
Wind_Direction_500mb
169 163 158 147 156 165 156 141 114 84 58 65 43 22 17 4 357 356 338 346 352 352 350 351 352 354 360 355 8 26 19 14 354 340 334 337 335 331 326 320 317 313 312
192 188 187 196 211 212 194 184 202 223 57 47 8 356 348 345 342 346 347 346 351 350 349 350 354 356 359 3 9 9 359 341 341 341 340 337 335 333 331 331 330 328 328
214 214 219 226 223 194 171 150 104 87 15 349 340 340 335 332 333 338 347 346 343 348 354 357 357 358 354 348 343 344 345 341 340 340 338 335 334 336 336 336 336 336 338
228 226 230 230 226 212 194 157 210 324 312 319 330 326 324 321 322 329 332 334 338 344 347 353 351 345 344 342 342 345 349 347 342 340 342 343 343 343 344 345 345 345 342
236 242 242 237 226 213 203 243 278 285 295 307 316 318 310 305 310 322 335 343 1 357 348 348 347 351 349 349 360 354 348 345 346 349 350 350 350 351 352 352 350 347 343
239 258 248 239 228 211 225 243 253 282 291 292 305 319 299 294 277 320 336 358 340 350 349 354 350 350 358 355 351 344 349 355 357 356 355 354 355 357 357 353 350 347 343
245 250 241 240 227 223 237 247 266 275 286 292 303 305 301 290 271 215 324 323 342 342 345 349 351 349 352 349 348 356 2 2 0 358 355 354 354 354 354 355 351 348 345
244 251 244 241 245 244 245 254 267 275 278 287 290 306 233 230 195 264 233 314 329 337 338 344 348 352 349 355 359 360 2 1 358 356 354 353 352 352 354 357 356 353 349
244 250 250 244 244 248 252 255 255 259 267 279 283 266 264 227 180 269 248 272 309 325 331 345 353 354 356 356 357 358 360 359 357 356 354 355 354 355 1 2 360 359 357
247 247 239 243 247 252 250 253 255 256 254 269 274 261 250 242 213 218 245 272 312 324 333 339 341 354 357 357 358 357 358 357 357 357 358 358 358 1 3 4 6 4 4
244 241 240 246 249 249 252 253 258 269 256 274 267 259 262 251 236 221 217 238 301 304 310 325 328 349 356 358 356 355 356 354 358 360 359 360 2 3 1 6 5 359 357
240 235 242 247 251 252 255 257 260 256 256 264 250 254 252 244 235 231 233 250 262 279 295 318 327 345 352 355 354 352 354 356 0 360 1 2 3 360 1 3 0 3 0
239 237 242 242 250 255 253 254 255 252 261 255 245 246 249 239 233 233 240 246 250 255 271 293 315 338 347 352 352 352 356 359 2 2 4 4 1 358 3 3 359 359 359
246 245 240 240 244 247 255 253 254 251 256 244 241 246 237 232 233 235 233 231 225 234 242 251 298 334 344 349 353 357 0 5 2 4 3 3 358 356 2 359 359 358 359
247 240 240 240 239 240 240 249 249 252 252 242 243 232 231 230 234 238 233 227 210 213 216 263 284 334 343 348 357 0 5 5 4 2 1 359 355 353 351 356 356 356 356
248 245 239 240 235 236 232 235 243 250 247 240 233 228 226 229 234 236 230 222 212 204 206 255 291 321 341 349 356 1 3 3 3 360 359 356 353 352 350 349 352 353 354
249 245 241 241 234 234 230 230 239 249 238 231 225 225 227 231 233 230 226 220 212 218 247 292 304 323 336 351 353 358 1 357 358 356 357 354 351 352 351 343 342 346 349
248 248 244 242 241 233 227 230 242 245 231 222 223 223 227 231 231 231 223 218 215 219 284 291 318 322 331 341 349 353 359 350 349 354 351 351 351 351 351 345 339 338 340
244 243 242 240 231 234 236 228 247 234 223 221 223 225 228 230 228 228 225 224 225 245 278 303 315 320 323 335 342 345 349 345 342 346 348 348 348 346 345 344 341 340 341
247 241 237 237 240 233 225 238 239 222 220 221 222 224 226 227 226 222 222 227 238 268 290 298 311 320 324 330 331 335 333 334 337 339 339 341 343 341 337 342 343 339 340
247 240 236 232 238 225 225 237 232 221 221 220 222 224 223 222 220 220 223 231 245 277 284 289 303 311 317 323 323 324 328 328 326 331 337 341 339 336 335 339 338 336 336
241 239 228 231 223 223 229 231 228 220 221 221 223 224 224 220 217 218 223 233 270 269 275 284 293 298 307 316 315 316 319 324 337 328 332 339 334 338 333 338 336 334 337
239 232 232 226 228 229 228 226 223 222 222 224 223 224 223 218 217 217 222 265 263 267 270 274 281 293 302 306 306 312 315 314 318 323 321 328 331 332 334 333 333 332 338
230 230 231 221 225 224 226 221 221 221 222 223 225 226 223 219 215 218 242 249 264 266 267 274 283 288 292 297 302 304 308 305 309 309 318 320 327 320 328 329 331 334 336
236 235 226 226 224 225 225 221 220 220 221 224 226 225 222 219 216 230 239 258 266 262 266 273 280 282 286 292 297 302 308 305 309 309 313 315 320 317 323 329 329 333 337
244 240 230 225 225 228 223 222 222 224 225 224 222 221 216 214 225 231 248 264 265 262 263 268 275 280 282 286 292 297 300 297 297 305 309 310 313 317 321 317 327 328 336
Wind_Speed_850mb
11 9 8 6 5 4 4 4 3 3 4 6 8 11 15 17 19 20 26 28 26 23 25 27 28 28 25 27 32 34 32 34 33 35 42 45 47 48 49 50 54 56 58
12 10 8 5 4 4 5 5 3 0 1 3 6 10 13 16 20 20 17 25 22 23 27 29 28 29 28 27 27 28 30 36 42 44 46 49 51 53 55 57 58 59 60
16 13 10 9 8 5 5 4 4 3 3 7 11 14 17 19 20 18 13 13 23 23 23 25 26 27 26 24 30 35 40 42 45 47 48 50 52 54 56 56 58 59 59
20 18 17 15 12 10 8 7 1 4 7 11 13 13 14 20 20 14 13 11 13 16 22 24 25 24 27 29 33 34 37 44 49 50 52 53 55 58 60 60 61 62 64
25 23 24 20 17 15 12 7 9 9 12 15 19 22 19 18 11 11 10 14 10 14 23 26 24 24 28 31 33 40 44 45 47 51 54 56 59 59 60 61 63 65 66
25 21 17 20 22 21 17 15 14 13 16 16 23 21 17 10 7 6 9 4 11 18 22 20 22 26 27 28 36 44 45 47 50 54 56 57 58 59 60 61 62 65 68
28 27 22 21 23 22 21 20 20 21 20 19 21 9 17 10 5 2 2 6 11 22 21 19 20 20 23 29 36 43 47 50 52 55 56 59 60 60 62 63 65 68 70
37 34 28 28 24 23 25 26 23 26 25 23 19 24 10 7 9 5 5 7 16 22 19 16 17 18 28 39 43 47 49 52 53 55 57 59 61 63 64 66 69 71 73
41 42 38 35 34 34 33 34 31 29 28 27 27 20 10 8 13 13 11 13 17 16 17 18 18 25 34 41 44 48 50 51 52 54 56 59 62 64 65 66 71 76 76
42 43 42 41 42 41 39 42 34 34 33 32 31 28 27 27 9 10 16 16 17 16 16 20 17 26 33 39 44 48 49 50 50 52 56 59 61 65 65 66 65 66 67
48 44 42 41 43 45 46 40 38 39 34 34 33 33 32 27 27 24 14 13 16 20 16 17 13 26 33 39 43 47 47 49 51 54 56 59 62 65 61 57 56 61 64
54 51 46 42 42 48 51 48 49 46 38 38 39 40 33 29 26 25 23 21 16 20 18 18 16 25 32 36 39 41 44 48 50 52 56 59 60 59 54 49 53 56 57
65 62 54 50 46 46 46 53 52 45 43 40 43 43 38 34 29 27 24 23 18 19 16 17 16 20 28 32 34 38 42 45 47 49 53 56 56 56 51 45 49 53 56
69 67 65 60 57 47 45 49 51 46 44 44 44 43 38 34 31 26 23 20 17 18 16 17 14 16 23 27 31 34 38 39 42 47 50 52 54 52 42 44 48 54 56
71 75 71 65 62 58 50 48 48 47 47 47 45 41 39 34 29 24 20 17 16 12 10 15 17 20 23 26 27 31 34 35 41 43 48 50 52 51 50 44 46 52 54
81 72 74 72 69 63 58 50 47 51 50 50 47 44 40 34 29 24 20 17 13 11 13 16 16 17 21 24 27 29 31 33 37 39 44 49 52 53 50 43 44 50 54
80 71 71 75 75 69 64 57 49 53 52 51 50 46 40 35 29 25 20 18 12 7 6 12 15 19 20 22 24 26 28 31 34 37 42 47 51 51 49 49 49 48 54
75 69 71 78 79 71 69 59 53 56 56 55 52 46 42 36 30 26 22 17 12 5 7 11 16 20 21 21 23 23 24 27 32 33 39 45 47 48 49 52 50 52 55
74 73 74 76 81 82 72 59 55 54 58 56 51 47 42 36 31 29 22 17 10 6 7 11 16 19 21 22 23 24 23 24 30 30 35 41 43 44 46 49 47 46 51
78 76 78 82 84 69 71 57 57 61 61 56 54 50 42 36 33 29 23 18 11 9 9 14 17 18 21 24 26 25 24 24 24 29 33 39 40 42 43 47 48 47 52
76 73 75 82 91 71 76 58 64 65 64 61 56 49 43 38 35 30 24 18 13 12 18 18 18 19 21 24 28 31 32 27 28 27 30 37 40 38 44 45 46 48 53
66 70 72 81 80 75 66 63 68 68 66 62 55 49 43 41 39 34 25 19 14 21 22 22 20 21 23 25 28 30 34 34 30 39 37 34 38 36 45 46 47 46 52
63 66 78 80 79 84 67 65 70 68 63 60 54 49 47 45 42 34 24 18 30 28 26 24 23 23 27 27 29 30 31 32 36 36 43 40 37 35 43 48 47 40 54
59 68 78 78 81 73 66 70 71 67 63 57 51 50 48 47 42 32 24 26 31 35 30 28 27 28 28 28 29 31 31 33 34 38 37 46 41 39 40 46 41 41 50
63 73 80 82 77 73 72 76 73 69 62 58 56 52 51 48 41 31 27 29 40 41 35 33 34 30 29 29 31 34 33 37 40 32 41 42 41 53 49 42 36 50 49
62 69 82 84 78 74 77 73 69 68 66 64 62 58 53 46 39 34 31 33 47 43 39 37 37 36 34 32 33 35 36 39 38 41 34 41 47 50 47 33 48 52 49
Wind_Direction_850mb
169 163 158 147 156 165 156 141 114 84 58 65 43 22 17 4 357 356 338 346 352 352 350 351 352 354 360 355 8 26 19 14 354 340 334 337 335 331 326 320 317 313 312
192 188 187 196 211 212 194 184 202 223 57 47 8 356 348 345 342 346 347 346 351 350 349 350 354 356 359 3 9 9 359 341 341 341 340 337 335 333 331 331 330 328 328
214 214 219 226 223 194 171 150 104 87 15 349 340 340 335 332 333 338 347 346 343 348 354 357 357 358 354 348 343 344 345 341 340 340 338 335 334 336 336 336 336 336 338
228 226 230 230 226 212 194 157 210 324 312 319 330 326 324 321 322 329 332 334 338 344 347 353 351 345 344 342 342 345 349 347 342 340 342 343 343 343 344 345 345 345 342
236 242 242 237 226 213 203 243 278 285 295 307 316 318 310 305 310 322 335 343 1 357 348 348 347 351 349 349 360 354 348 345 346 349 350 350 350 351 352 352 350 347 343
239 258 248 239 228 211 225 243 253 282 291 292 305 319 299 294 277 320 336 358 340 350 349 354 350 350 358 355 351 344 349 355 357 356 355 354 355 357 357 353 350 347 343
245 250 241 240 227 223 237 247 266 275 286 292 303 305 301 290 271 215 324 323 342 342 345 349 351 349 352 349 348 356 2 2 0 358 355 354 354 354 354 355 351 348 345
244 251 244 241 245 244 245 254 267 275 278 287 290 306 233 230 195 264 233 314 329 337 338 344 348 352 349 355 359 360 2 1 358 356 354 353 352 352 354 357 356 353 349
244 250 250 244 244 248 252 255 255 259 267 279 283 266 264 227 180 269 248 272 309 325 331 345 353 354 356 356 357 358 360 359 357 356 354 355 354 355 1 2 360 359 357
247 247 239 243 247 252 250 253 255 256 254 269 274 261 250 242 213 218 245 272 312 324 333 339 341 354 357 357 358 357 358 357 357 357 358 358 358 1 3 4 6 4 4
244 241 240 246 249 249 252 253 258 269 256 274 267 259 262 251 236 221 217 238 301 304 310 325 328 349 356 358 356 355 356 354 358 360 359 360 2 3 1 6 5 359 357
240 235 242 247 251 252 255 257 260 256 256 264 250 254 252 244 235 231 233 250 262 279 295 318 327 345 352 355 354 352 354 356 0 360 1 2 3 360 1 3 0 3 0
239 237 242 242 250 255 253 254 255 252 261 255 245 246 249 239 233 233 240 246 250 255 271 293 315 338 347 352 352 352 356 359 2 2 4 4 1 358 3 3 359 359 359
246 245 240 240 244 247 255 253 254 251 256 244 241 246 237 232 233 235 233 231 225 234 242 251 298 334 344 349 353 357 0 5 2 4 3 3 358 356 2 359 359 358 359
247 240 240 240 239 240 240 249 249 252 252 242 243 232 231 230 234 238 233 227 210 213 216 263 284 334 343 348 357 0 5 5 4 2 1 359 355 353 351 356 356 356 356
248 245 239 240 235 236 232 235 243 250 247 240 233 228 226 229 234 236 230 222 212 204 206 255 291 321 341 349 356 1 3 3 3 360 359 356 353 352 350 349 352 353 354
249 245 241 241 234 234 230 230 239 249 238 231 225 225 227 231 233 230 226 220 212 218 247 292 304 323 336 351 353 358 1 357 358 356 357 354 351 352 351 343 342 346 349
248 248 244 242 241 233 227 230 242 245 231 222 223 223 227 231 231 231 223 218 215 219 284 291 318 322 331 341 349 353 359 350 349 354 351 351 351 351 351 345 339 338 340
244 243 242 240 231 234 236 228 247 234 223 221 223 225 228 230 228 228 225 224 225 245 278 303 315 320 323 335 342 345 349 345 342 346 348 348 348 346 345 344 341 340 341
247 241 237 237 240 233 225 238 239 222 220 221 222 224 226 227 226 222 222 227 238 268 290 298 311 320 324 330 331 335 333 334 337 339 339 341 343 341 337 342 343 339 340
247 240 236 232 238 225 225 237 232 221 221 220 222 224 223 222 220 220 223 231 245 277 284 289 303 311 317 323 323 324 328 328 326 331 337 341 339 336 335 339 338 336 336
241 239 228 231 223 223 229 231 228 220 221 221 223 224 224 220 217 218 223 233 270 269 275 284 293 298 307 316 315 316 319 324 337 328 332 339 334 338 333 338 336 334 337
239 232 232 226 228 229 228 226 223 222 222 224 223 224 223 218 217 217 222 265 263 267 270 274 281 293 302 306 306 312 315 314 318 323 321 328 331 332 334 333 333 332 338
230 230 231 221 225 224 226 221 221 221 222 223 225 226 223 219 215 218 242 249 264 266 267 274 283 288 292 297 302 304 308 305 309 309 318 320 327 320 328 329 331 334 336
236 235 226 226 224 225 225 221 220 220 221 224 226 225 222 219 216 230 239 258 266 262 266 273 280 282 286 292 297 302 308 305 309 309 313 315 320 317 323 329 329 333 337
244 240 230 225 225 228 223 222 222 224 225 224 222 221 216 214 225 231 248 264 265 262 263 268 275 280 282 286 292 297 300 297 297 305 309 310 313 317 321 317 327 328 336